Location: Demre
(36.2444°N, 29.9850°E)
Time: 04:44:10
(UTC+00:00)

Cosmos 883 Rocket - Pass Details

Date: 11 March 2026
Orbit: 950 x 993 km, 83.0° (Epoch: 21 April)

Event Time Altitude Azimuth Distance (km) Brightness Sun altitude
Rises 18:19:08 0° 354° (N) 3,698 7.8 -27.8°
Reaches altitude 10° 18:21:40 10° 356° (N) 2,751 7.1 -28.3°
Enters shadow 18:27:42 79° 41° (NE) 1,013 4.4 -29.4°
